Time,TemperatureF,DewpointF,PressureIn,WindDirection,WindDirectionDegrees,WindSpeedMPH,WindSpeedGustMPH,Humidity,HourlyPrecipIn,Conditions,Clouds,dailyrainin,SoftwareType,DateUTC
2013-09-14 00:01:00,56.3,50.2,29.90,North,358,0.0,5.0,80,0.00,,,0.00,meteohub,2013-09-14 04:01:00,
2013-09-14 00:02:00,56.3,50.2,29.90,NNE,32,1.0,5.0,80,0.00,,,0.00,meteohub,2013-09-14 04:02:00,
2013-09-14 00:07:00,56.3,50.5,29.90,ESE,108,0.0,5.0,81,0.00,,,0.00,meteohub,2013-09-14 04:07:00,
2013-09-14 00:12:00,56.1,50.4,29.90,NE,51,0.0,3.0,81,0.00,,,0.00,meteohub,2013-09-14 04:12:00,
2013-09-14 00:17:00,56.1,50.0,29.90,East,91,0.0,4.0,80,0.00,,,0.00,meteohub,2013-09-14 04:17:00,
2013-09-14 00:22:00,56.3,49.8,29.90,NE,50,2.0,4.0,79,0.00,,,0.00,meteohub,2013-09-14 04:22:00,
2013-09-14 00:27:00,56.5,50.0,29.90,NE,53,0.0,5.0,79,0.00,,,0.00,meteohub,2013-09-14 04:27:00,
2013-09-14 00:32:00,56.5,50.0,29.91,ENE,70,3.0,5.0,79,0.00,,,0.00,meteohub,2013-09-14 04:32:00,
2013-09-14 00:37:00,56.7,49.8,29.91,NE,41,0.0,6.0,78,0.00,,,0.00,meteohub,2013-09-14 04:37:00,
2013-09-14 00:42:00,56.5,50.0,29.90,NE,41,3.0,6.0,79,0.00,,,0.00,meteohub,2013-09-14 04:42:00,
2013-09-14 00:47:00,56.3,49.5,29.91,East,86,5.0,6.0,78,0.00,,,0.00,meteohub,2013-09-14 04:47:00,
2013-09-14 00:52:00,56.7,49.8,29.91,SW,215,0.0,5.0,78,0.00,,,0.00,meteohub,2013-09-14 04:52:00,
2013-09-14 00:57:00,56.7,49.8,29.91,East,87,3.0,6.0,78,0.00,,,0.00,meteohub,2013-09-14 04:57:00,
2013-09-14 01:02:00,56.7,49.5,29.91,ESE,103,0.0,6.0,77,0.00,,,0.00,meteohub,2013-09-14 05:02:00,
2013-09-14 01:07:00,56.7,49.5,29.91,NE,40,7.0,7.0,77,0.00,,,0.00,meteohub,2013-09-14 05:07:00,
2013-09-14 01:12:00,56.7,49.5,29.90,East,84,1.0,7.0,77,0.00,,,0.00,meteohub,2013-09-14 05:12:00,
2013-09-14 01:17:00,56.5,49.3,29.91,North,355,1.0,7.0,77,0.00,,,0.00,meteohub,2013-09-14 05:17:00,
2013-09-14 01:22:00,56.5,49.6,29.90,East,82,0.0,7.0,78,0.00,,,0.00,meteohub,2013-09-14 05:22:00,
2013-09-14 01:27:00,56.3,49.5,29.91,East,81,0.0,5.0,78,0.00,,,0.00,meteohub,2013-09-14 05:27:00,
2013-09-14 01:32:00,56.3,49.5,29.90,North,8,0.0,5.0,78,0.00,,,0.00,meteohub,2013-09-14 05:32:00,
2013-09-14 01:37:00,56.1,49.3,29.90,NNW,338,0.0,5.0,78,0.00,,,0.00,meteohub,2013-09-14 05:37:00,
2013-09-14 01:42:00,55.9,49.5,29.90,ESE,114,1.0,5.0,79,0.00,,,0.00,meteohub,2013-09-14 05:42:00,
2013-09-14 01:47:00,55.9,49.1,29.90,ESE,103,4.0,5.0,78,0.00,,,0.00,meteohub,2013-09-14 05:47:00,
2013-09-14 01:52:00,55.9,49.5,29.91,NNE,18,0.0,5.0,79,0.00,,,0.00,meteohub,2013-09-14 05:52:00,
2013-09-14 01:57:00,55.8,49.3,29.91,East,79,0.0,4.0,79,0.00,,,0.00,meteohub,2013-09-14 05:57:00,
2013-09-14 02:02:00,55.6,49.5,29.90,ESE,115,0.0,4.0,80,0.00,,,0.00,meteohub,2013-09-14 06:02:00,
2013-09-14 02:07:00,55.0,48.9,29.91,ENE,64,0.0,5.0,80,0.00,,,0.00,meteohub,2013-09-14 06:07:00,
2013-09-14 02:12:00,54.9,49.1,29.91,NE,39,1.0,5.0,81,0.00,,,0.00,meteohub,2013-09-14 06:12:00,
2013-09-14 02:17:00,54.7,48.9,29.91,ENE,65,1.0,4.0,81,0.00,,,0.00,meteohub,2013-09-14 06:17:00,
2013-09-14 02:22:00,54.7,49.3,29.91,NE,53,0.0,4.0,82,0.00,,,0.00,meteohub,2013-09-14 06:22:00,
2013-09-14 02:27:00,54.5,49.1,29.91,East,89,0.0,4.0,82,0.00,,,0.00,meteohub,2013-09-14 06:27:00,
2013-09-14 02:32:00,54.3,48.9,29.91,ESE,118,0.0,4.0,82,0.00,,,0.00,meteohub,2013-09-14 06:32:00,
2013-09-14 02:37:00,54.1,49.1,29.91,NNE,26,0.0,4.0,83,0.00,,,0.00,meteohub,2013-09-14 06:37:00,
2013-09-14 02:42:00,54.0,48.9,29.91,NE,49,0.0,3.0,83,0.00,,,0.00,meteohub,2013-09-14 06:42:00,
2013-09-14 02:47:00,54.0,49.3,29.91,ENE,68,0.0,2.0,84,0.00,,,0.00,meteohub,2013-09-14 06:47:00,
2013-09-14 02:52:00,53.8,49.1,29.91,ESE,118,0.0,1.0,84,0.00,,,0.00,meteohub,2013-09-14 06:52:00,
2013-09-14 02:57:00,53.8,49.1,29.91,SE,136,0.0,2.0,84,0.00,,,0.00,meteohub,2013-09-14 06:57:00,
2013-09-14 03:02:00,53.6,48.9,29.91,ENE,68,0.0,4.0,84,0.00,,,0.00,meteohub,2013-09-14 07:02:00,
2013-09-14 03:07:00,53.4,49.1,29.91,NE,37,0.0,4.0,85,0.00,,,0.00,meteohub,2013-09-14 07:07:00,
2013-09-14 03:12:00,53.2,48.9,29.91,ENE,60,1.0,4.0,85,0.00,,,0.00,meteohub,2013-09-14 07:12:00,
2013-09-14 03:17:00,53.1,48.7,29.91,East,82,0.0,2.0,85,0.00,,,0.00,meteohub,2013-09-14 07:17:00,
2013-09-14 03:22:00,52.9,48.7,29.91,WSW,256,0.0,2.0,86,0.00,,,0.00,meteohub,2013-09-14 07:22:00,
2013-09-14 03:27:00,52.9,48.7,29.91,NE,39,0.0,2.0,86,0.00,,,0.00,meteohub,2013-09-14 07:27:00,
2013-09-14 03:32:00,52.7,48.6,29.91,ENE,77,0.0,2.0,86,0.00,,,0.00,meteohub,2013-09-14 07:32:00,
2013-09-14 03:37:00,52.5,48.4,29.91,NE,46,0.0,1.0,86,0.00,,,0.00,meteohub,2013-09-14 07:37:00,
2013-09-14 03:42:00,52.5,48.4,29.91,SE,143,0.0,3.0,86,0.00,,,0.00,meteohub,2013-09-14 07:42:00,
2013-09-14 03:47:00,52.5,48.4,29.91,East,83,0.0,3.0,86,0.00,,,0.00,meteohub,2013-09-14 07:47:00,
2013-09-14 03:52:00,52.3,48.6,29.91,ENE,77,0.0,3.0,87,0.00,,,0.00,meteohub,2013-09-14 07:52:00,
2013-09-14 03:57:00,52.3,48.6,29.91,ENE,75,0.0,3.0,87,0.00,,,0.00,meteohub,2013-09-14 07:57:00,
2013-09-14 04:02:00,52.2,48.4,29.91,East,94,0.0,3.0,87,0.00,,,0.00,meteohub,2013-09-14 08:02:00,
2013-09-14 04:07:00,52.0,48.6,29.91,SW,215,0.0,3.0,88,0.00,,,0.00,meteohub,2013-09-14 08:07:00,
2013-09-14 04:12:00,51.6,48.2,29.91,East,94,0.0,3.0,88,0.00,,,0.00,meteohub,2013-09-14 08:12:00,
2013-09-14 04:17:00,51.6,48.2,29.91,SE,135,0.0,3.0,88,0.00,,,0.00,meteohub,2013-09-14 08:17:00,
2013-09-14 04:22:00,51.4,48.4,29.91,East,83,1.0,1.0,89,0.00,,,0.00,meteohub,2013-09-14 08:22:00,
2013-09-14 04:27:00,51.3,48.2,29.91,East,91,2.0,2.0,89,0.00,,,0.00,meteohub,2013-09-14 08:27:00,
2013-09-14 04:32:00,51.3,48.2,29.91,ESE,120,0.0,3.0,89,0.00,,,0.00,meteohub,2013-09-14 08:32:00,
2013-09-14 04:37:00,51.1,48.0,29.91,ESE,120,0.0,3.0,89,0.00,,,0.00,meteohub,2013-09-14 08:37:00,
2013-09-14 04:42:00,51.1,48.2,29.92,ENE,64,0.0,3.0,90,0.00,,,0.00,meteohub,2013-09-14 08:42:00,
2013-09-14 04:47:00,50.7,47.8,29.91,East,96,0.0,1.0,90,0.00,,,0.00,meteohub,2013-09-14 08:47:00,
2013-09-14 04:52:00,50.5,47.7,29.92,East,96,0.0,1.0,90,0.00,,,0.00,meteohub,2013-09-14 08:52:00,
2013-09-14 04:57:00,50.4,47.8,29.91,East,100,0.0,0.0,91,0.00,,,0.00,meteohub,2013-09-14 08:57:00,
2013-09-14 05:02:00,50.2,47.7,29.91,ESE,120,0.0,0.0,91,0.00,,,0.00,meteohub,2013-09-14 09:02:00,
2013-09-14 05:07:00,50.2,48.0,29.92,ESE,121,0.0,1.0,92,0.00,,,0.00,meteohub,2013-09-14 09:07:00,
2013-09-14 05:12:00,49.8,47.3,29.92,ESE,120,0.0,1.0,91,0.00,,,0.00,meteohub,2013-09-14 09:12:00,
2013-09-14 05:17:00,49.6,47.5,29.92,ESE,123,0.0,1.0,92,0.00,,,0.00,meteohub,2013-09-14 09:17:00,
2013-09-14 05:22:00,49.5,47.3,29.92,ESE,122,0.0,0.0,92,0.00,,,0.00,meteohub,2013-09-14 09:22:00,
2013-09-14 05:27:00,49.5,47.5,29.92,ESE,115,0.0,1.0,93,0.00,,,0.00,meteohub,2013-09-14 09:27:00,
2013-09-14 05:32:00,49.5,47.5,29.92,SE,146,0.0,1.0,93,0.00,,,0.00,meteohub,2013-09-14 09:32:00,
2013-09-14 05:37:00,49.5,47.5,29.93,SE,146,0.0,1.0,93,0.00,,,0.00,meteohub,2013-09-14 09:37:00,
2013-09-14 05:42:00,49.3,47.3,29.93,SE,145,0.0,1.0,93,0.00,,,0.00,meteohub,2013-09-14 09:42:00,
2013-09-14 05:47:00,49.1,47.1,29.93,SE,146,0.0,1.0,93,0.00,,,0.00,meteohub,2013-09-14 09:47:00,
2013-09-14 05:52:00,48.9,46.9,29.93,SE,131,0.0,0.0,93,0.00,,,0.00,meteohub,2013-09-14 09:52:00,
2013-09-14 05:57:00,48.9,46.9,29.94,North,359,0.0,0.0,93,0.00,,,0.00,meteohub,2013-09-14 09:57:00,
2013-09-14 06:02:00,48.7,46.8,29.94,NNE,15,0.0,1.0,93,0.00,,,0.00,meteohub,2013-09-14 10:02:00,
2013-09-14 06:07:00,48.6,46.6,29.94,NNE,15,0.0,1.0,93,0.00,,,0.00,meteohub,2013-09-14 10:07:00,
2013-09-14 06:12:00,48.6,46.9,29.94,NW,312,0.0,1.0,94,0.00,,,0.00,meteohub,2013-09-14 10:12:00,
2013-09-14 06:17:00,48.6,46.9,29.94,NW,318,0.0,0.0,94,0.00,,,0.00,meteohub,2013-09-14 10:17:00,
2013-09-14 06:22:00,48.6,46.9,29.94,NW,317,0.0,0.0,94,0.00,,,0.00,meteohub,2013-09-14 10:22:00,
2013-09-14 06:27:00,48.6,46.9,29.95,NW,318,0.0,0.0,94,0.00,,,0.00,meteohub,2013-09-14 10:27:00,
2013-09-14 06:32:00,48.4,46.8,29.95,NW,317,0.0,0.0,94,0.00,,,0.00,meteohub,2013-09-14 10:32:00,
2013-09-14 06:37:00,48.4,46.8,29.96,NW,318,0.0,0.0,94,0.00,,,0.00,meteohub,2013-09-14 10:37:00,
2013-09-14 06:42:00,48.2,46.6,29.96,NW,317,0.0,0.0,94,0.00,,,0.00,meteohub,2013-09-14 10:42:00,
2013-09-14 06:47:00,48.0,46.6,29.96,NW,318,0.0,0.0,95,0.00,,,0.00,meteohub,2013-09-14 10:47:00,
2013-09-14 06:52:00,48.0,46.6,29.96,NW,318,0.0,0.0,95,0.00,,,0.00,meteohub,2013-09-14 10:52:00,
2013-09-14 06:57:00,48.4,46.9,29.96,NNE,19,0.0,0.0,95,0.00,,,0.00,meteohub,2013-09-14 10:57:00,
2013-09-14 07:02:00,48.4,46.9,29.97,NNE,19,0.0,0.0,95,0.00,,,0.00,meteohub,2013-09-14 11:02:00,
2013-09-14 07:07:00,48.4,46.9,29.97,NNE,18,0.0,0.0,95,0.00,,,0.00,meteohub,2013-09-14 11:07:00,
2013-09-14 07:12:00,48.4,46.9,29.97,NNE,19,0.0,0.0,95,0.00,,,0.00,meteohub,2013-09-14 11:12:00,
2013-09-14 07:17:00,48.4,46.9,29.98,NNE,18,0.0,0.0,95,0.00,,,0.00,meteohub,2013-09-14 11:17:00,
2013-09-14 07:22:00,48.4,46.9,29.98,NNE,19,0.0,0.0,95,0.00,,,0.00,meteohub,2013-09-14 11:22:00,
2013-09-14 07:27:00,48.2,46.8,29.98,NNW,330,0.0,0.0,95,0.00,,,0.00,meteohub,2013-09-14 11:27:00,
2013-09-14 07:32:00,48.2,46.8,29.98,NE,44,0.0,0.0,95,0.00,,,0.00,meteohub,2013-09-14 11:32:00,
2013-09-14 07:37:00,48.4,46.9,29.98,NE,44,0.0,0.0,95,0.00,,,0.00,meteohub,2013-09-14 11:37:00,
2013-09-14 07:42:00,48.6,47.1,29.98,NE,44,0.0,0.0,95,0.00,,,0.00,meteohub,2013-09-14 11:42:00,
2013-09-14 07:47:00,48.6,47.1,29.99,NE,43,0.0,0.0,95,0.00,,,0.00,meteohub,2013-09-14 11:47:00,
2013-09-14 07:52:00,48.6,47.1,29.99,NE,43,0.0,0.0,95,0.00,,,0.00,meteohub,2013-09-14 11:52:00,
2013-09-14 07:57:00,48.7,47.3,29.99,NE,42,0.0,0.0,95,0.00,,,0.00,meteohub,2013-09-14 11:57:00,
2013-09-14 08:02:00,48.9,47.5,30.00,NE,44,0.0,0.0,95,0.00,,,0.00,meteohub,2013-09-14 12:02:00,
2013-09-14 08:08:00,49.1,47.7,30.00,ENE,74,0.0,0.0,95,0.00,,,0.00,meteohub,2013-09-14 12:08:00,
2013-09-14 08:13:00,49.5,48.0,30.00,ENE,74,0.0,0.0,95,0.00,,,0.00,meteohub,2013-09-14 12:13:00,
2013-09-14 08:18:00,49.8,48.7,30.00,ENE,72,0.0,0.0,96,0.00,,,0.00,meteohub,2013-09-14 12:18:00,
2013-09-14 08:23:00,50.4,48.9,30.00,ENE,72,0.0,1.0,95,0.00,,,0.00,meteohub,2013-09-14 12:23:00,
2013-09-14 08:28:00,51.1,49.5,30.00,ESE,102,0.0,1.0,94,0.00,,,0.00,meteohub,2013-09-14 12:28:00,
2013-09-14 08:33:00,52.0,49.6,30.00,SSE,149,0.0,2.0,92,0.00,,,0.00,meteohub,2013-09-14 12:33:00,
2013-09-14 08:38:00,53.1,50.2,30.01,SSE,149,0.0,2.0,90,0.00,,,0.00,meteohub,2013-09-14 12:38:00,
2013-09-14 08:43:00,53.8,50.0,30.00,ENE,59,0.0,1.0,87,0.00,,,0.00,meteohub,2013-09-14 12:43:00,
2013-09-14 08:48:00,54.3,49.8,30.01,ENE,76,0.0,1.0,85,0.00,,,0.00,meteohub,2013-09-14 12:48:00,
2013-09-14 08:53:00,55.0,50.4,30.01,ENE,64,0.0,1.0,84,0.00,,,0.00,meteohub,2013-09-14 12:53:00,
2013-09-14 08:58:00,55.6,50.9,30.01,NE,38,0.0,1.0,84,0.00,,,0.00,meteohub,2013-09-14 12:58:00,
2013-09-14 09:03:00,55.8,50.7,30.02,NE,40,2.0,2.0,83,0.00,,,0.00,meteohub,2013-09-14 13:03:00,
2013-09-14 09:08:00,55.8,50.7,30.02,NE,46,0.0,2.0,83,0.00,,,0.00,meteohub,2013-09-14 13:08:00,
2013-09-14 09:13:00,55.8,51.1,30.02,East,100,0.0,2.0,84,0.00,,,0.00,meteohub,2013-09-14 13:13:00,
2013-09-14 09:18:00,56.1,51.1,30.02,ESE,103,0.0,2.0,83,0.00,,,0.00,meteohub,2013-09-14 13:18:00,
2013-09-14 09:23:00,56.7,51.3,30.02,NE,36,2.0,2.0,82,0.00,,,0.00,meteohub,2013-09-14 13:23:00,
2013-09-14 09:28:00,56.8,51.1,30.03,ENE,68,2.0,4.0,81,0.00,,,0.00,meteohub,2013-09-14 13:28:00,
2013-09-14 09:33:00,56.8,51.1,30.03,NE,47,5.0,5.0,81,0.00,,,0.00,meteohub,2013-09-14 13:33:00,
2013-09-14 09:38:00,57.0,51.3,30.03,NNE,29,2.0,7.0,81,0.00,,,0.00,meteohub,2013-09-14 13:38:00,
2013-09-14 09:43:00,56.8,50.4,30.03,ENE,63,8.0,8.0,79,0.00,,,0.00,meteohub,2013-09-14 13:43:00,
2013-09-14 09:48:00,56.8,50.0,30.03,NE,51,5.0,8.0,78,0.00,,,0.00,meteohub,2013-09-14 13:48:00,
2013-09-14 09:53:00,57.0,50.2,30.03,NE,48,1.0,8.0,78,0.00,,,0.00,meteohub,2013-09-14 13:53:00,
2013-09-14 09:58:00,57.4,50.2,30.03,NE,37,4.0,8.0,77,0.00,,,0.00,meteohub,2013-09-14 13:58:00,
2013-09-14 10:03:00,57.4,49.8,30.03,NE,50,2.0,8.0,76,0.00,,,0.00,meteohub,2013-09-14 14:03:00,
2013-09-14 10:08:00,57.4,49.8,30.04,East,80,2.0,11.0,76,0.00,,,0.00,meteohub,2013-09-14 14:08:00,
2013-09-14 10:13:00,57.6,50.4,30.04,NE,35,4.0,11.0,77,0.00,,,0.00,meteohub,2013-09-14 14:13:00,
2013-09-14 10:18:00,57.6,50.4,30.04,NNE,33,6.0,11.0,77,0.00,,,0.00,meteohub,2013-09-14 14:18:00,
2013-09-14 10:23:00,57.7,50.9,30.04,NNE,26,6.0,9.0,78,0.00,,,0.00,meteohub,2013-09-14 14:23:00,
2013-09-14 10:28:00,58.1,51.3,30.05,NE,42,1.0,9.0,78,0.00,,,0.00,meteohub,2013-09-14 14:28:00,
2013-09-14 10:33:00,58.3,51.1,30.05,NNE,16,8.0,9.0,77,0.00,,,0.00,meteohub,2013-09-14 14:33:00,
2013-09-14 10:38:00,57.9,50.7,30.05,NNE,16,3.0,12.0,77,0.00,,,0.00,meteohub,2013-09-14 14:38:00,
2013-09-14 10:43:00,58.3,51.1,30.05,NNE,20,3.0,12.0,77,0.00,,,0.00,meteohub,2013-09-14 14:43:00,
2013-09-14 10:48:00,58.5,50.5,30.05,North,0,0.0,12.0,75,0.00,,,0.00,meteohub,2013-09-14 14:48:00,
2013-09-14 10:53:00,58.8,50.9,30.05,ENE,70,3.0,11.0,75,0.00,,,0.00,meteohub,2013-09-14 14:53:00,
2013-09-14 10:58:00,59.0,50.0,30.05,NNE,33,3.0,8.0,72,0.00,,,0.00,meteohub,2013-09-14 14:58:00,
2013-09-14 11:03:00,59.2,50.9,30.05,NNE,18,1.0,9.0,74,0.00,,,0.00,meteohub,2013-09-14 15:03:00,
2013-09-14 11:08:00,59.7,50.4,30.05,North,5,4.0,9.0,71,0.00,,,0.00,meteohub,2013-09-14 15:08:00,
2013-09-14 11:13:00,59.9,50.5,30.05,NNW,345,0.0,9.0,71,0.00,,,0.00,meteohub,2013-09-14 15:13:00,
2013-09-14 11:18:00,60.3,50.9,30.05,NNE,25,2.0,8.0,71,0.00,,,0.00,meteohub,2013-09-14 15:18:00,
2013-09-14 11:23:00,60.3,50.4,30.05,NNE,19,8.0,8.0,70,0.00,,,0.00,meteohub,2013-09-14 15:23:00,
2013-09-14 11:28:00,60.1,50.7,30.05,North,350,1.0,8.0,71,0.00,,,0.00,meteohub,2013-09-14 15:28:00,
2013-09-14 11:33:00,60.6,50.4,30.05,East,84,3.0,9.0,69,0.00,,,0.00,meteohub,2013-09-14 15:33:00,
2013-09-14 11:38:00,61.0,50.7,30.05,NNE,30,6.0,9.0,69,0.00,,,0.00,meteohub,2013-09-14 15:38:00,
2013-09-14 11:43:00,61.3,51.1,30.05,East,79,4.0,9.0,69,0.00,,,0.00,meteohub,2013-09-14 15:43:00,
2013-09-14 11:48:00,61.7,51.1,30.05,NE,40,4.0,7.0,68,0.00,,,0.00,meteohub,2013-09-14 15:48:00,
2013-09-14 11:53:00,61.9,51.3,30.05,NE,48,4.0,10.0,68,0.00,,,0.00,meteohub,2013-09-14 15:53:00,
2013-09-14 11:58:00,62.1,51.8,30.05,WNW,295,0.0,10.0,69,0.00,,,0.00,meteohub,2013-09-14 15:58:00,
2013-09-14 12:03:00,63.0,51.4,30.06,NNW,345,1.0,10.0,66,0.00,,,0.00,meteohub,2013-09-14 16:03:00,
2013-09-14 12:08:00,63.3,51.8,30.05,NNW,345,0.0,8.0,66,0.00,,,0.00,meteohub,2013-09-14 16:08:00,
2013-09-14 12:13:00,63.5,51.4,30.05,NNE,12,0.0,5.0,65,0.00,,,0.00,meteohub,2013-09-14 16:13:00,
2013-09-14 12:18:00,63.9,51.4,30.05,NE,45,4.0,5.0,64,0.00,,,0.00,meteohub,2013-09-14 16:18:00,
2013-09-14 12:23:00,63.9,50.5,30.05,ESE,111,0.0,6.0,62,0.00,,,0.00,meteohub,2013-09-14 16:23:00,
2013-09-14 12:28:00,64.4,52.0,30.05,NW,323,0.0,6.0,64,0.00,,,0.00,meteohub,2013-09-14 16:28:00,
2013-09-14 12:33:00,64.9,52.0,30.05,NE,51,5.0,6.0,63,0.00,,,0.00,meteohub,2013-09-14 16:33:00,
2013-09-14 12:38:00,64.8,51.4,30.05,NE,47,6.0,6.0,62,0.00,,,0.00,meteohub,2013-09-14 16:38:00,
2013-09-14 12:43:00,64.2,50.9,30.05,North,356,2.0,8.0,62,0.00,,,0.00,meteohub,2013-09-14 16:43:00,
2013-09-14 12:48:00,64.2,51.4,30.05,SE,128,2.0,8.0,63,0.00,,,0.00,meteohub,2013-09-14 16:48:00,
2013-09-14 12:53:00,64.6,51.3,30.05,East,98,0.0,8.0,62,0.00,,,0.00,meteohub,2013-09-14 16:53:00,
2013-09-14 12:58:00,65.1,51.8,30.05,ENE,74,3.0,8.0,62,0.00,,,0.00,meteohub,2013-09-14 16:58:00,
2013-09-14 13:03:00,65.5,52.2,30.05,NW,324,0.0,8.0,62,0.00,,,0.00,meteohub,2013-09-14 17:03:00,
2013-09-14 13:08:00,65.7,52.3,30.05,East,87,4.0,4.0,62,0.00,,,0.00,meteohub,2013-09-14 17:08:00,
2013-09-14 13:13:00,65.5,52.2,30.04,NNE,20,5.0,7.0,62,0.00,,,0.00,meteohub,2013-09-14 17:13:00,
2013-09-14 13:18:00,65.1,51.8,30.04,SW,221,0.0,7.0,62,0.00,,,0.00,meteohub,2013-09-14 17:18:00,
2013-09-14 13:24:00,65.5,52.2,30.04,SSW,195,0.0,7.0,62,0.00,,,0.00,meteohub,2013-09-14 17:24:00,
2013-09-14 13:29:00,65.7,53.2,30.04,NE,46,0.0,6.0,64,0.00,,,0.00,meteohub,2013-09-14 17:29:00,
2013-09-14 13:34:00,66.2,54.1,30.04,West,280,0.0,6.0,65,0.00,,,0.00,meteohub,2013-09-14 17:34:00,
2013-09-14 13:39:00,66.4,53.8,30.04,West,281,0.0,1.0,64,0.00,,,0.00,meteohub,2013-09-14 17:39:00,
2013-09-14 13:44:00,66.2,53.6,30.04,NNE,18,1.0,2.0,64,0.00,,,0.00,meteohub,2013-09-14 17:44:00,
2013-09-14 13:49:00,66.4,52.9,30.04,ENE,65,0.0,2.0,62,0.00,,,0.00,meteohub,2013-09-14 17:49:00,
2013-09-14 13:54:00,66.7,54.1,30.04,WNW,284,0.0,3.0,64,0.00,,,0.00,meteohub,2013-09-14 17:54:00,
2013-09-14 13:59:00,67.5,54.5,30.04,West,278,0.0,5.0,63,0.00,,,0.00,meteohub,2013-09-14 17:59:00,
2013-09-14 14:04:00,67.6,53.2,30.04,South,176,4.0,5.0,60,0.00,,,0.00,meteohub,2013-09-14 18:04:00,
2013-09-14 14:09:00,67.8,54.0,30.04,West,278,0.0,5.0,61,0.00,,,0.00,meteohub,2013-09-14 18:09:00,
2013-09-14 14:14:00,68.0,53.1,30.04,East,98,0.0,5.0,59,0.00,,,0.00,meteohub,2013-09-14 18:14:00,
2013-09-14 14:19:00,68.5,55.0,30.04,NW,318,0.0,4.0,62,0.00,,,0.00,meteohub,2013-09-14 18:19:00,
2013-09-14 14:24:00,68.5,54.1,30.04,South,187,1.0,2.0,60,0.00,,,0.00,meteohub,2013-09-14 18:24:00,
2013-09-14 14:29:00,68.4,54.3,30.04,ENE,72,0.0,2.0,61,0.00,,,0.00,meteohub,2013-09-14 18:29:00,
2013-09-14 14:34:00,68.7,54.7,30.03,NW,307,0.0,2.0,61,0.00,,,0.00,meteohub,2013-09-14 18:34:00,
2013-09-14 14:39:00,68.7,53.8,30.03,SW,221,0.0,2.0,59,0.00,,,0.00,meteohub,2013-09-14 18:39:00,
2013-09-14 14:44:00,68.9,54.5,30.03,WSW,253,0.0,1.0,60,0.00,,,0.00,meteohub,2013-09-14 18:44:00,
2013-09-14 14:49:00,69.4,54.9,30.03,WNW,297,0.0,1.0,60,0.00,,,0.00,meteohub,2013-09-14 18:49:00,
2013-09-14 14:54:00,69.8,55.8,30.03,SE,143,0.0,1.0,61,0.00,,,0.00,meteohub,2013-09-14 18:54:00,
2013-09-14 14:59:00,70.2,55.2,30.03,East,82,1.0,2.0,59,0.00,,,0.00,meteohub,2013-09-14 18:59:00,
2013-09-14 15:04:00,70.2,55.2,30.03,South,169,0.0,5.0,59,0.00,,,0.00,meteohub,2013-09-14 19:04:00,
2013-09-14 15:09:00,69.6,54.1,30.03,SSE,167,2.0,5.0,58,0.00,,,0.00,meteohub,2013-09-14 19:09:00,
2013-09-14 15:14:00,68.9,54.5,30.03,SE,144,0.0,5.0,60,0.00,,,0.00,meteohub,2013-09-14 19:14:00,
2013-09-14 15:19:00,68.5,55.9,30.03,NNE,18,0.0,5.0,64,0.00,,,0.00,meteohub,2013-09-14 19:19:00,
2013-09-14 15:24:00,68.4,55.8,30.03,North,1,0.0,5.0,64,0.00,,,0.00,meteohub,2013-09-14 19:24:00,
2013-09-14 15:29:00,68.2,55.9,30.03,NE,37,0.0,4.0,65,0.00,,,0.00,meteohub,2013-09-14 19:29:00,
2013-09-14 15:34:00,68.2,55.0,30.03,SSE,148,2.0,4.0,63,0.00,,,0.00,meteohub,2013-09-14 19:34:00,
2013-09-14 15:39:00,67.8,55.6,30.03,NW,304,0.0,4.0,65,0.00,,,0.00,meteohub,2013-09-14 19:39:00,
2013-09-14 15:44:00,67.8,54.7,30.02,WNW,286,0.0,4.0,63,0.00,,,0.00,meteohub,2013-09-14 19:44:00,
2013-09-14 15:49:00,67.6,55.4,30.03,WNW,288,0.0,6.0,65,0.00,,,0.00,meteohub,2013-09-14 19:49:00,
2013-09-14 15:54:00,67.6,55.4,30.03,SE,143,0.0,6.0,65,0.00,,,0.00,meteohub,2013-09-14 19:54:00,
2013-09-14 15:59:00,67.8,55.6,30.03,SW,228,0.0,6.0,65,0.00,,,0.00,meteohub,2013-09-14 19:59:00,
2013-09-14 16:04:00,68.0,55.4,30.03,SSE,168,2.0,2.0,64,0.00,,,0.00,meteohub,2013-09-14 20:04:00,
2013-09-14 16:09:00,68.2,55.6,30.03,West,267,2.0,6.0,64,0.00,,,0.00,meteohub,2013-09-14 20:09:00,
2013-09-14 16:14:00,68.2,55.6,30.03,SE,131,3.0,6.0,64,0.00,,,0.00,meteohub,2013-09-14 20:14:00,
2013-09-14 16:19:00,68.0,55.4,30.03,WNW,285,0.0,6.0,64,0.00,,,0.00,meteohub,2013-09-14 20:19:00,
2013-09-14 16:24:00,67.8,55.6,30.03,SSW,204,1.0,6.0,65,0.00,,,0.00,meteohub,2013-09-14 20:24:00,
2013-09-14 16:29:00,68.2,55.0,30.03,North,356,1.0,4.0,63,0.00,,,0.00,meteohub,2013-09-14 20:29:00,
2013-09-14 16:34:00,68.2,55.9,30.03,NNE,20,0.0,4.0,65,0.00,,,0.00,meteohub,2013-09-14 20:34:00,
2013-09-14 16:39:00,67.8,55.6,30.04,WNW,295,0.0,6.0,65,0.00,,,0.00,meteohub,2013-09-14 20:39:00,
2013-09-14 16:44:00,67.3,56.3,30.04,NW,306,0.0,6.0,68,0.00,,,0.00,meteohub,2013-09-14 20:44:00,
2013-09-14 16:49:00,66.9,55.6,30.04,NW,313,0.0,4.0,67,0.00,,,0.00,meteohub,2013-09-14 20:49:00,
2013-09-14 16:54:00,66.4,55.0,30.04,WSW,249,0.0,3.0,67,0.00,,,0.00,meteohub,2013-09-14 20:54:00,
2013-09-14 16:59:00,66.0,55.2,30.04,West,267,0.0,3.0,68,0.00,,,0.00,meteohub,2013-09-14 20:59:00,
2013-09-14 17:04:00,65.8,55.4,30.04,WSW,246,0.0,3.0,69,0.00,,,0.00,meteohub,2013-09-14 21:04:00,
2013-09-14 17:09:00,65.7,55.9,30.04,West,273,0.0,3.0,71,0.00,,,0.00,meteohub,2013-09-14 21:09:00,
2013-09-14 17:14:00,65.5,55.8,30.05,WNW,287,0.0,2.0,71,0.00,,,0.00,meteohub,2013-09-14 21:14:00,
2013-09-14 17:19:00,65.5,55.8,30.04,NNE,26,0.0,2.0,71,0.00,,,0.00,meteohub,2013-09-14 21:19:00,
2013-09-14 17:24:00,65.5,55.8,30.04,West,274,0.0,1.0,71,0.00,,,0.00,meteohub,2013-09-14 21:24:00,
2013-09-14 17:29:00,65.3,55.6,30.05,West,267,1.0,3.0,71,0.00,,,0.00,meteohub,2013-09-14 21:29:00,
2013-09-14 17:34:00,65.1,55.9,30.05,West,267,0.0,3.0,72,0.00,,,0.00,meteohub,2013-09-14 21:34:00,
2013-09-14 17:39:00,65.1,56.3,30.05,WSW,240,1.0,3.0,73,0.00,,,0.00,meteohub,2013-09-14 21:39:00,
2013-09-14 17:44:00,65.1,56.7,30.05,SSW,198,0.0,3.0,74,0.00,,,0.00,meteohub,2013-09-14 21:44:00,
2013-09-14 17:49:00,64.9,56.1,30.05,West,262,0.0,3.0,73,0.00,,,0.00,meteohub,2013-09-14 21:49:00,
2013-09-14 17:54:00,64.9,56.5,30.06,West,264,0.0,3.0,74,0.00,,,0.00,meteohub,2013-09-14 21:54:00,
2013-09-14 17:59:00,64.8,56.3,30.06,SW,224,0.0,3.0,74,0.00,,,0.00,meteohub,2013-09-14 21:59:00,
2013-09-14 18:04:00,64.8,56.7,30.06,SSW,205,0.0,2.0,75,0.00,,,0.00,meteohub,2013-09-14 22:04:00,
2013-09-14 18:09:00,64.6,56.8,30.06,SSW,212,0.0,2.0,76,0.00,,,0.00,meteohub,2013-09-14 22:09:00,
2013-09-14 18:15:00,64.6,56.8,30.06,SW,233,0.0,2.0,76,0.00,,,0.00,meteohub,2013-09-14 22:15:00,
2013-09-14 18:20:00,64.4,57.0,30.06,SW,233,0.0,1.0,77,0.00,,,0.00,meteohub,2013-09-14 22:20:00,
2013-09-14 18:25:00,64.4,56.7,30.06,NNE,16,0.0,0.0,76,0.00,,,0.00,meteohub,2013-09-14 22:25:00,
2013-09-14 18:30:00,64.2,56.5,30.06,NNE,33,0.0,1.0,76,0.00,,,0.00,meteohub,2013-09-14 22:30:00,
2013-09-14 18:35:00,64.0,56.3,30.07,NNE,33,0.0,1.0,76,0.00,,,0.00,meteohub,2013-09-14 22:35:00,
2013-09-14 18:40:00,64.0,57.4,30.07,NNE,33,0.0,1.0,79,0.00,,,0.00,meteohub,2013-09-14 22:40:00,
2013-09-14 18:45:00,63.9,56.8,30.06,SSE,149,0.0,1.0,78,0.00,,,0.00,meteohub,2013-09-14 22:45:00,
2013-09-14 18:50:00,63.7,57.4,30.06,SE,136,0.0,1.0,80,0.00,,,0.00,meteohub,2013-09-14 22:50:00,
2013-09-14 18:55:00,63.3,57.0,30.06,SE,139,0.0,0.0,80,0.00,,,0.00,meteohub,2013-09-14 22:55:00,
2013-09-14 19:00:00,62.8,56.8,30.06,SE,138,0.0,0.0,81,0.00,,,0.00,meteohub,2013-09-14 23:00:00,
2013-09-14 19:05:00,62.2,56.7,30.06,SE,139,0.0,0.0,82,0.00,,,0.00,meteohub,2013-09-14 23:05:00,
2013-09-14 19:10:00,61.5,56.3,30.06,SE,139,0.0,0.0,83,0.00,,,0.00,meteohub,2013-09-14 23:10:00,
2013-09-14 19:15:00,61.2,56.3,30.07,SE,138,0.0,0.0,84,0.00,,,0.00,meteohub,2013-09-14 23:15:00,
2013-09-14 19:20:00,60.6,56.5,30.07,SE,139,0.0,0.0,86,0.00,,,0.00,meteohub,2013-09-14 23:20:00,
2013-09-14 19:25:00,60.3,56.3,30.07,SE,138,0.0,0.0,87,0.00,,,0.00,meteohub,2013-09-14 23:25:00,
2013-09-14 19:30:00,59.7,56.1,30.07,SE,138,0.0,0.0,88,0.00,,,0.00,meteohub,2013-09-14 23:30:00,
2013-09-14 19:35:00,59.4,55.8,30.07,SE,139,0.0,0.0,88,0.00,,,0.00,meteohub,2013-09-14 23:35:00,
2013-09-14 19:40:00,59.0,55.8,30.07,SE,138,0.0,0.0,89,0.00,,,0.00,meteohub,2013-09-14 23:40:00,
2013-09-14 19:45:00,58.6,55.4,30.07,SE,139,0.0,0.0,89,0.00,,,0.00,meteohub,2013-09-14 23:45:00,
2013-09-14 19:50:00,58.3,55.4,30.07,SE,139,0.0,0.0,90,0.00,,,0.00,meteohub,2013-09-14 23:50:00,
2013-09-14 19:55:00,57.7,55.2,30.07,SW,222,0.0,0.0,91,0.00,,,0.00,meteohub,2013-09-14 23:55:00,
2013-09-14 20:00:00,57.6,55.0,30.07,SW,222,0.0,0.0,91,0.00,,,0.00,meteohub,2013-09-15 00:00:00,
2013-09-14 20:05:00,57.4,54.9,30.07,SW,222,0.0,0.0,91,0.00,,,0.00,meteohub,2013-09-15 00:05:00,
2013-09-14 20:10:00,57.0,54.7,30.08,SW,222,0.0,0.0,92,0.00,,,0.00,meteohub,2013-09-15 00:10:00,
2013-09-14 20:15:00,56.8,54.5,30.08,SW,222,0.0,0.0,92,0.00,,,0.00,meteohub,2013-09-15 00:15:00,
2013-09-14 20:20:00,56.7,54.3,30.08,SW,222,0.0,0.0,92,0.00,,,0.00,meteohub,2013-09-15 00:20:00,
2013-09-14 20:25:00,56.3,54.0,30.08,SW,222,0.0,0.0,92,0.00,,,0.00,meteohub,2013-09-15 00:25:00,
2013-09-14 20:30:00,56.1,54.1,30.08,SW,222,0.0,0.0,93,0.00,,,0.00,meteohub,2013-09-15 00:30:00,
2013-09-14 20:35:00,55.9,54.0,30.08,SW,222,0.0,0.0,93,0.00,,,0.00,meteohub,2013-09-15 00:35:00,
2013-09-14 20:40:00,55.6,53.6,30.09,SW,222,0.0,0.0,93,0.00,,,0.00,meteohub,2013-09-15 00:40:00,
2013-09-14 20:45:00,55.4,53.4,30.09,SW,222,0.0,0.0,93,0.00,,,0.00,meteohub,2013-09-15 00:45:00,
2013-09-14 20:50:00,55.2,53.6,30.09,SW,222,0.0,0.0,94,0.00,,,0.00,meteohub,2013-09-15 00:50:00,
2013-09-14 20:55:00,55.0,53.4,30.09,SW,222,0.0,0.0,94,0.00,,,0.00,meteohub,2013-09-15 00:55:00,
2013-09-14 21:00:00,55.0,53.4,30.09,SW,222,0.0,0.0,94,0.00,,,0.00,meteohub,2013-09-15 01:00:00,
2013-09-14 21:05:00,54.7,53.1,30.10,SW,222,0.0,0.0,94,0.00,,,0.00,meteohub,2013-09-15 01:05:00,
2013-09-14 21:10:00,54.7,53.1,30.10,SW,222,0.0,0.0,94,0.00,,,0.00,meteohub,2013-09-15 01:10:00,
2013-09-14 21:15:00,54.3,52.7,30.10,SW,223,0.0,0.0,94,0.00,,,0.00,meteohub,2013-09-15 01:15:00,
2013-09-14 21:20:00,54.1,52.5,30.11,SW,222,0.0,0.0,94,0.00,,,0.00,meteohub,2013-09-15 01:20:00,
2013-09-14 21:25:00,54.1,52.5,30.11,SW,217,0.0,0.0,94,0.00,,,0.00,meteohub,2013-09-15 01:25:00,
2013-09-14 21:30:00,54.0,52.3,30.11,SW,217,0.0,0.0,94,0.00,,,0.00,meteohub,2013-09-15 01:30:00,
2013-09-14 21:35:00,53.8,52.2,30.11,SW,217,0.0,0.0,94,0.00,,,0.00,meteohub,2013-09-15 01:35:00,
2013-09-14 21:40:00,53.6,52.2,30.11,SW,217,0.0,0.0,95,0.00,,,0.00,meteohub,2013-09-15 01:40:00,
2013-09-14 21:45:00,53.4,52.0,30.12,SW,217,0.0,0.0,95,0.00,,,0.00,meteohub,2013-09-15 01:45:00,
2013-09-14 21:50:00,53.2,51.8,30.12,SW,217,0.0,0.0,95,0.00,,,0.00,meteohub,2013-09-15 01:50:00,
2013-09-14 21:55:00,53.1,51.6,30.12,SW,217,0.0,0.0,95,0.00,,,0.00,meteohub,2013-09-15 01:55:00,
2013-09-14 22:00:00,52.9,51.4,30.12,SW,217,0.0,0.0,95,0.00,,,0.00,meteohub,2013-09-15 02:00:00,
2013-09-14 22:05:00,52.9,51.4,30.12,SW,217,0.0,0.0,95,0.00,,,0.00,meteohub,2013-09-15 02:05:00,
2013-09-14 22:10:00,52.7,51.3,30.12,SW,217,0.0,0.0,95,0.00,,,0.00,meteohub,2013-09-15 02:10:00,
2013-09-14 22:15:00,52.9,51.8,30.12,SW,217,0.0,0.0,96,0.00,,,0.00,meteohub,2013-09-15 02:15:00,
2013-09-14 22:20:00,52.9,51.4,30.12,SW,216,0.0,0.0,95,0.00,,,0.00,meteohub,2013-09-15 02:20:00,
2013-09-14 22:25:00,52.7,51.3,30.12,SW,217,0.0,0.0,95,0.00,,,0.00,meteohub,2013-09-15 02:25:00,
2013-09-14 22:30:00,52.5,51.1,30.12,SW,217,0.0,0.0,95,0.00,,,0.00,meteohub,2013-09-15 02:30:00,
2013-09-14 22:36:00,52.3,50.9,30.12,SW,217,0.0,0.0,95,0.00,,,0.00,meteohub,2013-09-15 02:36:00,
2013-09-14 22:41:00,52.2,50.7,30.12,SW,217,0.0,0.0,95,0.00,,,0.00,meteohub,2013-09-15 02:41:00,
2013-09-14 22:46:00,52.0,50.5,30.12,SW,217,0.0,0.0,95,0.00,,,0.00,meteohub,2013-09-15 02:46:00,
2013-09-14 22:51:00,51.6,50.2,30.12,SW,217,0.0,0.0,95,0.00,,,0.00,meteohub,2013-09-15 02:51:00,
2013-09-14 22:56:00,51.6,50.2,30.13,SW,217,0.0,0.0,95,0.00,,,0.00,meteohub,2013-09-15 02:56:00,
2013-09-14 23:01:00,51.4,50.4,30.13,SW,217,0.0,0.0,96,0.00,,,0.00,meteohub,2013-09-15 03:01:00,
2013-09-14 23:06:00,51.4,50.4,30.13,SW,217,0.0,0.0,96,0.00,,,0.00,meteohub,2013-09-15 03:06:00,
2013-09-14 23:11:00,51.4,50.4,30.13,SW,217,0.0,0.0,96,0.00,,,0.00,meteohub,2013-09-15 03:11:00,
2013-09-14 23:16:00,51.3,50.2,30.13,SW,217,0.0,0.0,96,0.00,,,0.00,meteohub,2013-09-15 03:16:00,
2013-09-14 23:21:00,51.3,50.2,30.14,SW,217,0.0,0.0,96,0.00,,,0.00,meteohub,2013-09-15 03:21:00,
2013-09-14 23:26:00,51.3,50.2,30.14,SW,217,0.0,0.0,96,0.00,,,0.00,meteohub,2013-09-15 03:26:00,
2013-09-14 23:31:00,51.3,50.2,30.14,SW,217,0.0,0.0,96,0.00,,,0.00,meteohub,2013-09-15 03:31:00,
2013-09-14 23:36:00,51.1,50.0,30.14,SW,217,0.0,0.0,96,0.00,,,0.00,meteohub,2013-09-15 03:36:00,
2013-09-14 23:41:00,51.1,50.0,30.14,SW,217,0.0,0.0,96,0.00,,,0.00,meteohub,2013-09-15 03:41:00,
2013-09-14 23:46:00,51.1,50.0,30.15,SW,217,0.0,0.0,96,0.00,,,0.00,meteohub,2013-09-15 03:46:00,
2013-09-14 23:51:00,51.3,50.2,30.15,SW,217,0.0,0.0,96,0.00,,,0.00,meteohub,2013-09-15 03:51:00,
2013-09-14 23:56:00,51.3,50.2,30.15,SW,216,0.0,0.0,96,0.00,,,0.00,meteohub,2013-09-15 03:56:00,